Location: Boiro
(42.6475°N, 8.8834°W)
Time: 03:04:04
(UTC+01:00)

Vanguard 2 - Pass Details

Date: 08 December 2021
Orbit: 553 x 2936 km, 32.9° (Epoch: 20 January)

Event Time Altitude Azimuth Distance (km) Brightness Sun altitude
Rises 18:15:25 0° 259° (W) 3,369 12.6 -3.0°
Reaches altitude 10° 18:18:15 10° 241° (WSW) 2,705 12.4 -3.5°
Maximum altitude 18:22:53 20° 196° (SSW) 2,502 10.8 -4.2°
Drops below altitude 10° 18:29:11 10° 154° (SSE) 3,832 11.1 -5.2°
Sets 18:34:18 0° 141° (SE) 5,320 11.7 -6.1°
